Regional Weather Roundup
Issued by NWS

Home | Current Version | Previous Version | Text Only | Print | Product List | Glossary Off
Versions: 1 2 3 4 5 6 7 8 9 10 11 12 13 14 15 16 17 18 19 20 21 22 23 24 25 26 27 28 29 30 31 32 33 34 35 36 37 38 39 40 41 42 43 44 45 46 47 48 49 50

000
ASUS43 KLOT 211903
RWRIL

ILLINOIS REGIONAL WEATHER ROUNDUP
NATIONAL WEATHER SERVICE CHICAGO/ROMEOVILLE IL
200 PM CDT MON AUG 21 2017

NOTE: "FAIR" INDICATES FEW OR NO CLOUDS BELOW 12,000 FEET WITH NO
SIGNIFICANT WEATHER AND/OR OBSTRUCTIONS TO VISIBILITY.

* THESE STATIONS ARE NOT UNDER NWS QUALITY CONTROL. THEY ALSO MAY NOT
  REPORT WEATHER SUCH AS PRECIPITATION OR FOG.

ILZ001-002-007-009-015-016-024-212000-
NORTHWEST ILLINOIS

CITY           SKY/WX    TMP DP  RH WIND       PRES   REMARKS
MOLINE         CLOUDY    76  68  76 SE6       29.99F
STERLING*      CLOUDY    74  69  85 CALM      30.00F
SAVANNA*       MOSUNNY   74  69  84 CALM      29.99F
$$

ILZ003-004-008-010-011-017-018-212000-
NORTH CENTRAL ILLINOIS

CITY           SKY/WX    TMP DP  RH WIND       PRES   REMARKS
ROCKFORD       CLOUDY    76  71  85 NW5       30.02F
FREEPORT*      CLOUDY    73  69  87 CALM      30.02F
ROCHELLE*      CLOUDY    73  70  89 CALM      30.01F
$$

ILZ005-006-012>014-019>023-212000-
NORTHEAST ILLINOIS

CITY           SKY/WX    TMP DP  RH WIND       PRES   REMARKS
CHICAGO-OHARE  CLOUDY    80  71  74 S6        30.03F HX  84
CHICAGO-MIDWAY CLOUDY    80  72  76 SW5       30.02F HX  84
AURORA         CLOUDY    76  73  91 N5        30.03F FOG
LANSING*       CLOUDY    80  70  73 E7        30.01F HX  82
JOLIET*        CLOUDY    78  74  88 NE5       30.00F HX  81
WAUKEGAN       CLOUDY    78  73  84 S8        30.03F HX  81
DUPAGE AIRPORT CLOUDY    77  73  87 CALM      30.02F FOG
KANKAKEE*      CLOUDY    77  71  80 SE6       30.02F
WHEELING       CLOUDY    81  72  74 W3        30.04F HX  85
MORRIS*        CLOUDY    75  71  88 CALM      30.00F
NORTHERLY ISL    N/A     79  70  74 SE2         N/A  HX  82
$$

LMZ740>746-212000-
SOUTHERN LAKE MICHIGAN

STATION/POSITION SKY/WX   TEMP    WIND        PRES    VSBY  WAVE
                          AIR SEA DIR/SP/G                  HT/PER
                          (F)     (DEG/KT/KT) (MB)    (MI)  (FT/S)
SOUTHERN BUOY              73 72  280/  6/  8 1018.1          1/ 4
WILMETTE HARBOR            75 75  120/  6/  8   N/A           1
HARRISON CRIB              78     130/ 10/ 11   N/A
CALUMET HARBOR             80     200/  4/  5 1016.5F
BURNS HARBOR               78      60/  2/  3 1017.9F
MICHIGAN CITY              76     210/  6/  6   N/A
MICHIGAN CITY 6N           76 75  210/  2/  4   N/A           1
ST. JOSEPH                 74 75  180/  4/  6 1017.0F         1/ 3
$$

ILZ025>027-034>036-040-047-049-050-058-095>099-212000-
WEST-CENTRAL ILLINOIS

CITY           SKY/WX    TMP DP  RH WIND       PRES   REMARKS
QUINCY         CLOUDY    78  71  79 SW3       30.08R HX  80
GALESBURG*     MOSUNNY   74  69  86 S9G16     30.03S
MACOMB*        CLOUDY    72  69  92 S8        30.06F
$$

ILZ028>032-037-038-041>044-048-051>054-059>061-212000-
CENTRAL ILLINOIS

CITY           SKY/WX    TMP DP  RH WIND       PRES   REMARKS
BLOOMINGTON    CLOUDY    76  70  82 S7        30.07S
DECATUR        CLOUDY    79  69  71 E5        30.08F HX  81
PEORIA         CLOUDY    74  72  93 S16G24    30.03F
LACON*         CLOUDY    75  72  91 SW3       30.00R
LINCOLN*       CLOUDY    77  71  82 S3        30.06F
SPRINGFIELD    CLOUDY    81  71  71 SE3       30.07F HX  85
TAYLORVILLE    NOT AVBL
$$

ILZ033-039-045-046-055>057-062-063-212000-
EAST-CENTRAL ILLINOIS

CITY           SKY/WX    TMP DP  RH WIND       PRES   REMARKS
CHAMPAIGN      PTSUNNY   81  68  64 E6        30.08F HX  84
RANTOUL*       MOSUNNY   82  70  68 SE6       30.06F HX  86
MATTOON        PTSUNNY   73  71  93 SE6       30.09R
PARIS*         CLOUDY    83  75  78 CALM      30.10S THUNDER HX  90
$$

ILZ079-100>102-212000-
SOUTHWEST ILLINOIS

CITY           SKY/WX    TMP DP  RH WIND       PRES   REMARKS
ALTON          PTSUNNY   82  77  83 N12       30.06F HX  91
CAHOKIA*       SUNNY     91  74  57 S3        30.04F HX 100
SPARTA*        SUNNY     87  77  72 SE3       30.08F HX  99
$$

ILZ064>066-069>071-074>076-080>082-084>086-088>090-092>094-212000-
SOUTH-CENTRAL ILLINOIS

CITY           SKY/WX    TMP DP  RH WIND       PRES   REMARKS
CARBONDALE     SUNNY     87  78  74 S7        30.08F HX 100
CAIRO*         SUNNY     86  79  77 S6        30.09F HX 100
EFFINGHAM*     MOSUNNY   84  76  77 N8        30.09S HX  93
MT. VERNON       N/A     88  79  74 S6        30.08F HX 103
CENTRALIA*     SUNNY     88  78  73 S6        30.06F HX 102
SALEM*         SUNNY     89  76  66 CALM      30.07F HX 100
METROPOLIS*    HVY RAIN  86  78  75 S3        30.10F HX  99
$$

ILZ067-068-072-073-078-083-087-091-212000-
SOUTHEAST ILLINOIS

CITY           SKY/WX    TMP DP  RH WIND       PRES   REMARKS
LAWRENCEVILLE  MOSUNNY   87  75  67 S9        30.08F HX  96
FLORA*         MOSUNNY   87  79  77 S7        30.07F HX 101
FAIRFIELD*     MOSUNNY   87  78  74 S3        30.06F HX 100
HARRISBURG*    LGT RAIN  83  73  70 S3        30.08F HX  89
ROBINSON*      PTSUNNY   83  75  78 S3        30.09S HX  90
CARMI*         MOSUNNY   85  79  84 S5        30.07F HX  97
$$

ABBREVIATIONS USED IN REMARKS
   TC - TEMPERATURE IN CELSIUS
  WCI - WIND CHILL INDEX
   HX - HEAT INDEX
  VSB - VISIBILITY
$$




USA.gov is the U.S. government's official web portal to all federal, state and local government web resources and services.